Location: Unspecified
(0.0000°N, 0.0000°E)
Time: 11:50:21
(UTC+00:00)

Hubble Space Telescope - Pass Details

Date: 24 May 2017
Orbit: 538 x 542 km, 28.5° (Epoch: 22 August)

Event Time Altitude Azimuth Distance (km) Brightness Sun altitude
Rises 18:41:32 0° 243° (WSW) 2,676 5.0 -10.4°
Reaches altitude 10° 18:43:48 10° 244° (WSW) 1,784 4.1 -10.9°
Maximum altitude 18:47:55 75° 329° (NNW) 556 0.9 -11.9°
Drops below altitude 10° 18:52:03 10° 55° (NE) 1,783 3.1 -12.9°
Enters shadow 18:53:00 - 56° (NE) 2,157 3.5 -13.1°
